Weather in Sangkapura

Indonesia     5°50′44″S   112°39′20″E
temp.,
°C
wind,
m/s
gust,
m/s
humid.,
%
clouds,
%
prec.,
mm/h
press.,
hPa
HPBL,
m
6 march, sat
sat601:00+28nw3376100 0.0 1010375
04:00+28w3475100 0.0 1009374
07:00+28w1271100 0.0 1010374
10:00+28nw2370100 0.0 1011460
13:00+28wnw4470100 0.0 1009601
16:00+29wnw3368100 0.0 1008696
19:00+28wnw2275100 0.0 1010107
22:00+28w237668 0.0 1011297
7 march, sun
sun701:00+28wsw347437 0.0 1010468
04:00+28wsw4576100 0.4 1008518
07:00+28wsw4476100 1.5 1011453
10:00+28sw3475100 0.9 1011378
13:00+28nnw2268100 5.2 1009256
16:00+27nnw777826 7.1 1008672
19:00+27nnw678363 12.3 1010440
22:00+28wnw6777100 6.2 1011704
8 march, mon
mon801:00+28wsw6873100 7.8 1010960
04:00+27sw6681100 0.1 1009697
07:00+27wsw4578100 4.8 1011529
10:00+26wsw5683100 6.3 1012517
13:00+25wsw2483100 12.0 1010352
16:00+26wsw2478100 0.4 1008400
19:00+27wnw4575100 0.4 1010551
22:00+27wnw567898 0.6 1011504
9 march, tue
tue901:00+28w467499 2.9 1010661
04:00+27sw5578100 4.3 1009479
07:00+27wsw3477100 5.7 1011485
10:00+27w4577100 5.0 1012395
13:00+28wnw557399 8.3 1009592
16:00+27wnw558065 0.7 1008660
19:00+27wnw447882 0.8 1010648
22:00+27nw227598 0.9 1012232
10 march, wed
wed1001:00+27w447699 1.7 1010599
04:00+26w4481100 3.1 1009348
07:00+27w4576100 3.3 1011550
10:00+27sw458093 3.3 1012351
13:00+27w347596 7.7 1009509
16:00+28w4577100 0.0 1008796
19:00+28w5678100 0.0 1010743
22:00+28w567982 0.6 1011651